| time (UTC) | temp F | wind direction | speed knots | gust knots | rain 1hr in | rain 24hr in | rain mn in | humidity % | barometer mb |
| 20260505210634 | 59 | 333 | 0.9 | 2.6 | 0.00 | 0.00 | 0.00 | 77 | 1016.4 |
| 20260505205634 | 59 | 327 | 0.9 | 3.5 | 0.00 | 0.00 | 0.00 | 77 | 1016.6 |
| 20260505205134 | 60 | 294 | 0.0 | 1.7 | 0.00 | 0.00 | 0.00 | 77 | 1016.6 |
| 20260505204634 | 59 | 290 | 0.9 | 3.5 | 0.00 | 0.00 | 0.00 | 77 | 1016.6 |
| 20260505204133 | 60 | 306 | 0.9 | 3.5 | 0.00 | 0.00 | 0.00 | 77 | 1016.6 |
| 20260505203633 | 59 | 255 | 0.9 | 1.7 | 0.00 | 0.00 | 0.00 | 77 | 1016.6 |
| 20260505203130 | 59 | 334 | 0.0 | 1.7 | 0.00 | 0.00 | 0.00 | 78 | 1016.7 |
| 20260505202631 | 59 | 352 | 0.9 | 3.5 | 0.00 | 0.00 | 0.00 | 79 | 1016.6 |
| 20260505202127 | 59 | 22 | 0.0 | 3.5 | 0.00 | 0.00 | 0.00 | 78 | 1016.6 |
| 20260505201630 | 59 | 350 | 0.0 | 0.9 | 0.00 | 0.00 | 0.00 | 78 | 1016.7 |
| 20260505201128 | 59 | 287 | 0.9 | 2.6 | 0.00 | 0.00 | 0.00 | 80 | 1016.8 |
| 20260505200628 | 58 | 347 | 1.7 | 3.5 | 0.00 | 0.00 | 0.00 | 79 | 1016.8 |
| 20260505200132 | 58 | 82 | 0.9 | 5.2 | 0.00 | 0.00 | 0.00 | 79 | 1016.8 |
| 20260505200127 | 58 | 336 | 1.7 | 5.2 | 0.00 | 0.00 | 0.00 | 80 | 1016.8 |
| 20260505195126 | 59 | 57 | 0.9 | 4.3 | 0.00 | 0.00 | 0.00 | 79 | 1016.8 |
| 20260505194627 | 59 | 352 | 0.9 | 3.5 | 0.00 | 0.00 | 0.00 | 78 | 1016.7 |
| 20260505194130 | 59 | 195 | 0.9 | 4.3 | 0.00 | 0.00 | 0.00 | 77 | 1016.8 |
| 20260505194124 | 59 | 309 | 1.7 | 4.3 | 0.00 | 0.00 | 0.00 | 78 | 1016.7 |
| 20260505193122 | 59 | 321 | 0.0 | 2.6 | 0.00 | 0.00 | 0.00 | 77 | 1016.8 |
| 20260505192623 | 59 | 252 | 0.9 | 1.7 | 0.00 | 0.00 | 0.00 | 80 | 1016.8 |
| 20260505192123 | 58 | 278 | 0.9 | 3.5 | 0.00 | 0.00 | 0.00 | 80 | 1016.8 |
| 20260505191622 | 58 | 181 | 0.9 | 3.5 | 0.00 | 0.00 | 0.00 | 80 | 1016.8 |
| 20260505191122 | 57 | 226 | 0.9 | 2.6 | 0.00 | 0.00 | 0.00 | 82 | 1016.8 |
| 20260505190627 | 57 | 217 | 1.7 | 3.5 | 0.00 | 0.00 | 0.00 | 82 | 1016.9 |
| 20260505190623 | 57 | 210 | 1.7 | 3.5 | 0.00 | 0.00 | 0.00 | 81 | 1016.9 |
| 20260505185622 | 57 | 197 | 0.9 | 3.5 | 0.00 | 0.00 | 0.00 | 82 | 1016.8 |
| 20260505185119 | 57 | 243 | 0.9 | 2.6 | 0.00 | 0.00 | 0.00 | 83 | 1016.8 |
| 20260505184620 | 56 | 249 | 1.7 | 3.5 | 0.00 | 0.00 | 0.00 | 84 | 1016.8 |
| 20260505184119 | 56 | 236 | 1.7 | 5.2 | 0.00 | 0.00 | 0.00 | 83 | 1016.9 |
| 20260505183619 | 56 | 182 | 0.9 | 5.2 | 0.00 | 0.00 | 0.00 | 83 | 1016.9 |
| 20260505183117 | 56 | 250 | 0.9 | 3.5 | 0.00 | 0.00 | 0.00 | 83 | 1016.9 |
| 20260505182619 | 56 | 266 | 1.7 | 4.3 | 0.00 | 0.00 | 0.00 | 84 | 1016.9 |
| 20260505182119 | 56 | 202 | 1.7 | 4.3 | 0.00 | 0.00 | 0.00 | 84 | 1016.8 |
| 20260505181617 | 56 | 230 | 1.7 | 5.2 | 0.00 | 0.00 | 0.00 | 84 | 1016.8 |
| 20260505181123 | 56 | 184 | 2.6 | 7.0 | 0.00 | 0.00 | 0.00 | 85 | 1016.7 |
| 20260505181118 | 56 | 171 | 2.6 | 5.2 | 0.00 | 0.00 | 0.00 | 84 | 1016.8 |
| 20260505180116 | 55 | 232 | 2.6 | 7.0 | 0.00 | 0.00 | 0.00 | 84 | 1016.7 |
| 20260505175617 | 55 | 220 | 1.7 | 6.1 | 0.00 | 0.00 | 0.00 | 84 | 1016.7 |
| 20260505175116 | 55 | 275 | 1.7 | 4.3 | 0.00 | 0.00 | 0.00 | 84 | 1016.7 |
| 20260505174616 | 55 | 268 | 1.7 | 4.3 | 0.00 | 0.00 | 0.00 | 85 | 1016.7 |
| 20260505174116 | 55 | 159 | 0.9 | 4.3 | 0.00 | 0.00 | 0.00 | 84 | 1016.7 |
| 20260505173621 | 55 | 235 | 2.6 | 5.2 | 0.00 | 0.00 | 0.00 | 84 | 1016.7 |
| 20260505173617 | 55 | 278 | 2.6 | 5.2 | 0.00 | 0.00 | 0.00 | 85 | 1016.8 |
| 20260505172614 | 55 | 207 | 1.7 | 5.2 | 0.00 | 0.00 | 0.00 | 85 | 1016.7 |
| 20260505172114 | 55 | 252 | 1.7 | 5.2 | 0.00 | 0.00 | 0.00 | 85 | 1016.6 |
| 20260505171615 | 55 | 247 | 1.7 | 5.2 | 0.00 | 0.00 | 0.00 | 85 | 1016.4 |
| 20260505171112 | 55 | 284 | 2.6 | 5.2 | 0.00 | 0.00 | 0.00 | 85 | 1016.6 |
| 20260505170613 | 55 | 237 | 0.9 | 4.3 | 0.00 | 0.00 | 0.00 | 85 | 1016.4 |
| 20260505170118 | 55 | 212 | 1.7 | 5.2 | 0.00 | 0.00 | 0.00 | 86 | 1016.4 |
| 20260505170112 | 55 | 286 | 1.7 | 5.2 | 0.00 | 0.00 | 0.00 | 85 | 1016.4 |
| 20260505165110 | 55 | 251 | 2.6 | 4.3 | 0.00 | 0.00 | 0.00 | 86 | 1016.3 |
| 20260505164610 | 54 | 221 | 2.6 | 4.3 | 0.00 | 0.00 | 0.00 | 85 | 1016.3 |
| 20260505164233 | 54 | 254 | 0.9 | 5.2 | 0.00 | 0.00 | 0.00 | 87 | 1016.2 |
| 20260505164115 | 54 | 169 | 0.9 | 4.3 | 0.00 | 0.00 | 0.00 | 86 | 1016.2 |
| 20260505164110 | 55 | 231 | 1.7 | 4.3 | 0.00 | 0.00 | 0.00 | 86 | 1016.3 |
| 20260505163213 | 54 | 241 | 0.0 | 2.6 | 0.00 | 0.00 | 0.00 | 87 | 1016.2 |
| 20260505162110 | 54 | 299 | 0.9 | 3.5 | 0.00 | 0.00 | 0.00 | 87 | 1016.2 |
| 20260505162106 | 54 | 285 | 0.9 | 5.2 | 0.00 | 0.00 | 0.00 | 87 | 1016.2 |
| 20260505161107 | 54 | 271 | 0.9 | 4.3 | 0.00 | 0.00 | 0.00 | 88 | 1016.1 |
| 20260505160609 | 54 | 195 | 0.9 | 5.2 | 0.00 | 0.00 | 0.00 | 88 | 1016.2 |
| 20260505160603 | 54 | 271 | 0.9 | 5.2 | 0.00 | 0.00 | 0.00 | 88 | 1016.1 |
| 20260505153059 | 53 | 273 | 0.9 | 3.5 | 0.00 | 0.00 | 0.00 | 90 | 1016.0 |
| 20260505152600 | 53 | 245 | 0.9 | 3.5 | 0.00 | 0.00 | 0.00 | 90 | 1016.1 |
| 20260505152101 | 53 | 288 | 0.0 | 2.6 | 0.00 | 0.00 | 0.00 | 90 | 1016.1 |
| 20260505151605 | 52 | 252 | 0.9 | 6.1 | 0.00 | 0.00 | 0.00 | 90 | 1016.1 |
| 20260505151559 | 53 | 261 | 0.0 | 3.5 | 0.00 | 0.00 | 0.00 | 90 | 1016.0 |
| 20260505151221 | 52 | 251 | 0.9 | 6.1 | 0.00 | 0.00 | 0.00 | 89 | 1016.0 |
| 20260505140554 | 52 | 231 | 0.0 | 3.5 | 0.00 | 0.00 | 0.00 | 90 | 1015.4 |
| 20260505124551 | 52 | 237 | 1.7 | 4.3 | 0.00 | 0.00 | 0.00 | 90 | 1015.1 |
| 20260505124057 | 52 | 208 | 1.7 | 3.5 | 0.00 | 0.00 | 0.00 | 89 | 1015.0 |
| 20260505124051 | 52 | 243 | 1.7 | 4.3 | 0.00 | 0.00 | 0.00 | 90 | 1014.9 |
| 20260505123052 | 52 | 252 | 1.7 | 4.3 | 0.00 | 0.00 | 0.00 | 89 | 1015.0 |
| 20260505122551 | 52 | 243 | 0.9 | 4.3 | 0.00 | 0.00 | 0.00 | 89 | 1015.0 |
| 20260505122048 | 52 | 223 | 0.0 | 2.6 | 0.00 | 0.00 | 0.00 | 89 | 1015.0 |
| 20260505121548 | 52 | 257 | 0.9 | 2.6 | 0.00 | 0.00 | 0.00 | 89 | 1015.0 |
| 20260505121047 | 52 | 259 | 0.9 | 3.5 | 0.00 | 0.00 | 0.00 | 89 | 1014.9 |
| 20260505120547 | 52 | 242 | 1.7 | 3.5 | 0.00 | 0.00 | 0.00 | 89 | 1014.9 |
| 20260505120051 | 52 | 240 | 0.9 | 2.6 | 0.00 | 0.00 | 0.00 | 89 | 1014.8 |
| 20260505120046 | 52 | 220 | 0.9 | 3.5 | 0.00 | 0.00 | 0.00 | 89 | 1014.8 |
| 20260505115043 | 52 | 265 | 0.9 | 3.5 | 0.00 | 0.00 | 0.00 | 89 | 1014.9 |
| 20260505114544 | 52 | 267 | 0.9 | 3.5 | 0.00 | 0.00 | 0.00 | 89 | 1014.8 |
| 20260505114049 | 52 | 259 | 0.9 | 3.5 | 0.00 | 0.00 | 0.00 | 88 | 1014.9 |
| 20260505114045 | 52 | 267 | 0.9 | 3.5 | 0.00 | 0.00 | 0.00 | 89 | 1014.8 |
| 20260505113049 | 52 | 231 | 0.9 | 2.6 | 0.00 | 0.00 | 0.00 | 89 | 1014.8 |
| 20260505113044 | 52 | 257 | 0.9 | 2.6 | 0.00 | 0.00 | 0.00 | 89 | 1014.8 |
| 20260505112044 | 52 | 252 | 0.9 | 2.6 | 0.00 | 0.00 | 0.00 | 88 | 1014.8 |
| 20260505111545 | 52 | 253 | 0.9 | 2.6 | 0.00 | 0.00 | 0.00 | 88 | 1014.9 |
| 20260505111043 | 52 | 231 | 0.9 | 2.6 | 0.00 | 0.00 | 0.00 | 88 | 1014.8 |
| 20260505110543 | 52 | 266 | 0.9 | 2.6 | 0.00 | 0.00 | 0.00 | 88 | 1014.7 |
| 20260505102037 | 52 | 226 | 0.9 | 4.3 | 0.00 | 0.00 | 0.00 | 88 | 1014.4 |
| 20260505101539 | 52 | 244 | 0.0 | 1.7 | 0.00 | 0.00 | 0.00 | 88 | 1014.4 |
| 20260505101036 | 52 | 267 | 0.9 | 6.1 | 0.00 | 0.00 | 0.00 | 89 | 1014.3 |
| 20260505100536 | 52 | 244 | 1.7 | 6.1 | 0.00 | 0.00 | 0.00 | 88 | 1014.4 |
| 20260505100036 | 52 | 238 | 0.9 | 4.3 | 0.00 | 0.00 | 0.00 | 88 | 1014.4 |
| 20260505095536 | 52 | 260 | 1.7 | 4.3 | 0.00 | 0.00 | 0.00 | 88 | 1014.4 |
| 20260505095037 | 52 | 215 | 0.9 | 4.3 | 0.00 | 0.00 | 0.00 | 88 | 1014.4 |
| 20260505094537 | 52 | 257 | 0.9 | 3.5 | 0.00 | 0.00 | 0.00 | 88 | 1014.3 |
| 20260505094041 | 52 | 257 | 0.0 | 2.6 | 0.00 | 0.00 | 0.00 | 89 | 1014.3 |
| 20260505094037 | 52 | 236 | 0.9 | 3.5 | 0.00 | 0.00 | 0.00 | 88 | 1014.3 |
| 20260505093151 | 52 | 238 | 0.9 | 3.5 | 0.00 | 0.00 | 0.00 | 88 | 1014.2 |
| 20260505093037 | 52 | 260 | 0.9 | 3.5 | 0.00 | 0.00 | 0.00 | 88 | 1014.2 |
| 20260505093032 | 52 | 259 | 0.0 | 2.6 | 0.00 | 0.00 | 0.00 | 89 | 1014.3 |
| 20260505091533 | 52 | 264 | 0.9 | 5.2 | 0.00 | 0.00 | 0.00 | 88 | 1014.1 |
| 20260505091037 | 52 | 260 | 0.9 | 5.2 | 0.00 | 0.00 | 0.00 | 88 | 1014.0 |
| 20260505091033 | 52 | 252 | 0.9 | 5.2 | 0.00 | 0.00 | 0.00 | 88 | 1014.1 |
| 20260505090529 | 52 | 246 | 1.7 | 5.2 | 0.00 | 0.00 | 0.00 | 88 | 1014.0 |
| 20260505085531 | 52 | 261 | 0.0 | 2.6 | 0.00 | 0.00 | 0.00 | 88 | 1014.0 |
| 20260505085029 | 52 | 287 | 0.9 | 7.0 | 0.00 | 0.00 | 0.00 | 87 | 1014.0 |
| 20260505084527 | 53 | 250 | 1.7 | 7.0 | 0.00 | 0.00 | 0.00 | 87 | 1014.0 |
| 20260505084027 | 53 | 278 | 1.7 | 7.0 | 0.00 | 0.00 | 0.00 | 87 | 1013.9 |
| 20260505083533 | 53 | 245 | 2.6 | 9.6 | 0.00 | 0.00 | 0.00 | 86 | 1014.0 |
| 20260505083527 | 53 | 240 | 2.6 | 9.6 | 0.00 | 0.00 | 0.00 | 86 | 1014.0 |
| 20260505082528 | 53 | 250 | 1.7 | 6.1 | 0.00 | 0.00 | 0.00 | 86 | 1013.9 |
| 20260505082028 | 53 | 241 | 0.9 | 6.1 | 0.00 | 0.00 | 0.00 | 85 | 1013.8 |
| 20260505081527 | 53 | 266 | 0.9 | 5.2 | 0.00 | 0.00 | 0.00 | 85 | 1013.8 |
| 20260505081031 | 53 | 281 | 0.9 | 4.3 | 0.00 | 0.00 | 0.00 | 85 | 1013.8 |
| 20260505081025 | 53 | 264 | 0.9 | 4.3 | 0.00 | 0.00 | 0.00 | 85 | 1013.8 |
| 20260505080025 | 54 | 285 | 0.9 | 4.3 | 0.00 | 0.00 | 0.00 | 85 | 1013.7 |
| 20260505075527 | 54 | 263 | 0.9 | 2.6 | 0.00 | 0.00 | 0.00 | 85 | 1013.8 |
| 20260505075027 | 54 | 249 | 0.9 | 6.1 | 0.00 | 0.00 | 0.00 | 84 | 1013.7 |
| 20260505074525 | 54 | 271 | 1.7 | 7.0 | 0.00 | 0.00 | 0.00 | 84 | 1013.6 |
| 20260505074026 | 54 | 245 | 2.6 | 8.7 | 0.00 | 0.00 | 0.00 | 84 | 1013.6 |
| 20260505073527 | 54 | 230 | 2.6 | 8.7 | 0.00 | 0.00 | 0.00 | 84 | 1013.5 |
| 20260505073027 | 54 | 264 | 2.6 | 7.8 | 0.00 | 0.00 | 0.00 | 84 | 1013.4 |
| 20260505072525 | 54 | 256 | 2.6 | 7.8 | 0.00 | 0.00 | 0.00 | 83 | 1013.3 |
| 20260505072029 | 55 | 251 | 2.6 | 7.0 | 0.00 | 0.00 | 0.00 | 83 | 1013.2 |
| 20260505072024 | 55 | 240 | 2.6 | 7.8 | 0.00 | 0.00 | 0.00 | 83 | 1013.3 |
| 20260505071523 | 55 | 219 | 2.6 | 7.8 | 0.00 | 0.00 | 0.00 | 83 | 1013.2 |
| 20260505071147 | 55 | 238 | 1.7 | 6.1 | 0.00 | 0.00 | 0.00 | 82 | 1013.1 |
| 20260505070025 | 55 | 278 | 1.7 | 7.0 | 0.00 | 0.00 | 0.00 | 82 | 1013.1 |
| 20260505065522 | 56 | 259 | 2.6 | 7.0 | 0.00 | 0.00 | 0.00 | 82 | 1013.1 |
| 20260505065021 | 56 | 234 | 2.6 | 7.0 | 0.00 | 0.00 | 0.00 | 83 | 1013.0 |
| 20260505064523 | 56 | 193 | 1.7 | 5.2 | 0.00 | 0.00 | 0.00 | 82 | 1012.9 |
| 20260505064027 | 56 | 279 | 0.9 | 6.1 | 0.00 | 0.00 | 0.00 | 82 | 1012.8 |
| 20260505064022 | 56 | 238 | 1.7 | 6.1 | 0.00 | 0.00 | 0.00 | 82 | 1012.8 |
| 20260505063029 | 57 | 261 | 1.7 | 5.2 | 0.00 | 0.00 | 0.00 | 81 | 1012.8 |
| 20260505063024 | 57 | 225 | 1.7 | 5.2 | 0.00 | 0.00 | 0.00 | 81 | 1012.7 |
| 20260505062022 | 57 | 243 | 1.7 | 6.1 | 0.00 | 0.00 | 0.00 | 80 | 1012.7 |
| 20260505061523 | 58 | 230 | 1.7 | 6.1 | 0.00 | 0.00 | 0.00 | 80 | 1012.8 |
| 20260505061022 | 58 | 247 | 2.6 | 6.1 | 0.00 | 0.00 | 0.00 | 79 | 1012.7 |
| 20260505060523 | 58 | 252 | 3.5 | 7.0 | 0.00 | 0.00 | 0.00 | 79 | 1012.6 |
| 20260505060023 | 58 | 256 | 2.6 | 7.8 | 0.00 | 0.00 | 0.00 | 78 | 1012.6 |
| 20260505055522 | 59 | 240 | 2.6 | 9.6 | 0.00 | 0.00 | 0.00 | 78 | 1012.6 |
| 20260505055023 | 59 | 259 | 1.7 | 9.6 | 0.00 | 0.00 | 0.00 | 77 | 1012.6 |
| 20260505054523 | 59 | 243 | 2.6 | 6.1 | 0.00 | 0.00 | 0.00 | 76 | 1012.5 |
| 20260505054023 | 60 | 269 | 2.6 | 6.1 | 0.00 | 0.00 | 0.00 | 76 | 1012.5 |
| 20260505053522 | 60 | 254 | 2.6 | 6.1 | 0.00 | 0.00 | 0.00 | 76 | 1012.5 |
| 20260505053020 | 60 | 242 | 1.7 | 5.2 | 0.00 | 0.00 | 0.00 | 76 | 1012.4 |
| 20260505052521 | 61 | 246 | 0.9 | 5.2 | 0.00 | 0.00 | 0.00 | 76 | 1012.5 |
| 20260505052020 | 61 | 250 | 0.0 | 3.5 | 0.00 | 0.00 | 0.00 | 76 | 1012.5 |
| 20260505051520 | 62 | 266 | 0.0 | 2.6 | 0.00 | 0.00 | 0.00 | 76 | 1012.4 |
| 20260505051021 | 62 | 264 | 0.9 | 2.6 | 0.00 | 0.00 | 0.00 | 76 | 1012.3 |
| 20260505050520 | 62 | 258 | 0.9 | 2.6 | 0.00 | 0.00 | 0.00 | 75 | 1012.3 |
| 20260505041521 | 64 | 250 | 1.7 | 6.1 | 0.00 | 0.00 | 0.00 | 75 | 1011.6 |
| 20260505041021 | 65 | 232 | 0.9 | 6.1 | 0.00 | 0.00 | 0.00 | 74 | 1011.4 |
| 20260505040520 | 65 | 244 | 0.9 | 7.0 | 0.00 | 0.00 | 0.00 | 74 | 1011.3 |
| 20260505040025 | 65 | 332 | 3.5 | 9.6 | 0.00 | 0.00 | 0.00 | 74 | 1011.2 |
| 20260505040020 | 65 | 229 | 1.7 | 7.0 | 0.00 | 0.00 | 0.00 | 74 | 1011.2 |
| 20260505035019 | 65 | 223 | 3.5 | 10.4 | 0.00 | 0.00 | 0.00 | 74 | 1011.1 |
| 20260505034518 | 65 | 245 | 2.6 | 10.4 | 0.00 | 0.00 | 0.00 | 74 | 1011.0 |
| 20260505034018 | 66 | 243 | 1.7 | 8.7 | 0.00 | 0.00 | 0.00 | 74 | 1010.9 |
| 20260505033518 | 66 | 258 | 1.7 | 5.2 | 0.00 | 0.00 | 0.00 | 74 | 1010.8 |
| 20260505033018 | 66 | 240 | 1.7 | 6.1 | 0.00 | 0.00 | 0.00 | 74 | 1010.8 |
| 20260505032518 | 66 | 217 | 1.7 | 8.7 | 0.00 | 0.00 | 0.00 | 74 | 1010.7 |
| 20260505032019 | 66 | 237 | 2.6 | 8.7 | 0.00 | 0.00 | 0.00 | 73 | 1010.7 |
| 20260505031517 | 67 | 213 | 2.6 | 7.0 | 0.00 | 0.00 | 0.00 | 73 | 1010.6 |
| 20260505031019 | 67 | 246 | 2.6 | 7.8 | 0.00 | 0.00 | 0.00 | 73 | 1010.6 |
| 20260505030521 | 67 | 250 | 1.7 | 6.1 | 0.00 | 0.00 | 0.00 | 72 | 1010.5 |
| 20260505030516 | 67 | 254 | 2.6 | 7.8 | 0.00 | 0.00 | 0.00 | 72 | 1010.6 |
| 20260505025515 | 67 | 263 | 1.7 | 7.0 | 0.00 | 0.00 | 0.00 | 71 | 1010.5 |
| 20260505025018 | 68 | 239 | 1.7 | 7.0 | 0.00 | 0.00 | 0.00 | 71 | 1010.5 |
| 20260505024517 | 68 | 240 | 1.7 | 7.0 | 0.00 | 0.00 | 0.00 | 70 | 1010.5 |
| 20260505024018 | 68 | 252 | 2.6 | 7.0 | 0.00 | 0.00 | 0.00 | 70 | 1010.5 |
| 20260505023517 | 69 | 272 | 2.6 | 7.0 | 0.00 | 0.00 | 0.00 | 69 | 1010.5 |
| 20260505023018 | 69 | 243 | 2.6 | 7.0 | 0.00 | 0.00 | 0.00 | 68 | 1010.5 |
| 20260505022516 | 70 | 251 | 3.5 | 8.7 | 0.00 | 0.00 | 0.00 | 67 | 1010.4 |
| 20260505022016 | 70 | 251 | 3.5 | 8.7 | 0.00 | 0.00 | 0.00 | 66 | 1010.5 |
| 20260505021519 | 71 | 226 | 2.6 | 7.8 | 0.00 | 0.00 | 0.00 | 65 | 1010.5 |
| 20260505021513 | 70 | 247 | 2.6 | 7.8 | 0.00 | 0.00 | 0.00 | 65 | 1010.5 |
| 20260505020514 | 70 | 247 | 2.6 | 7.8 | 0.00 | 0.00 | 0.00 | 65 | 1010.5 |
| 20260505020013 | 71 | 309 | 2.6 | 7.8 | 0.00 | 0.00 | 0.00 | 65 | 1010.5 |
| 20260505015515 | 71 | 283 | 2.6 | 7.8 | 0.00 | 0.00 | 0.00 | 65 | 1010.5 |
| 20260505015013 | 71 | 230 | 2.6 | 9.6 | 0.00 | 0.00 | 0.00 | 64 | 1010.5 |
| 20260505014520 | 71 | 271 | 3.5 | 8.7 | 0.00 | 0.00 | 0.00 | 64 | 1010.5 |
| 20260505014515 | 71 | 207 | 2.6 | 9.6 | 0.00 | 0.00 | 0.00 | 63 | 1010.5 |
| 20260505014138 | 71 | 259 | 2.6 | 8.7 | 0.00 | 0.00 | 0.00 | 63 | 1010.6 |
| 20260505013013 | 72 | 259 | 1.7 | 5.2 | 0.00 | 0.00 | 0.00 | 63 | 1010.7 |
| 20260505012512 | 71 | 254 | 3.5 | 8.7 | 0.00 | 0.00 | 0.00 | 64 | 1010.8 |
| 20260505012012 | 71 | 224 | 4.3 | 10.4 | 0.00 | 0.00 | 0.00 | 63 | 1010.8 |
| 20260505011519 | 71 | 173 | 2.6 | 7.8 | 0.00 | 0.00 | 0.00 | 63 | 1010.8 |
| 20260505011514 | 71 | 232 | 3.5 | 10.4 | 0.00 | 0.00 | 0.00 | 63 | 1010.7 |
| 20260505010513 | 72 | 238 | 3.5 | 7.8 | 0.00 | 0.00 | 0.00 | 62 | 1010.8 |
| 20260505010012 | 71 | 266 | 2.6 | 7.8 | 0.00 | 0.00 | 0.00 | 63 | 1010.8 |
| 20260505005512 | 71 | 149 | 2.6 | 9.6 | 0.00 | 0.00 | 0.00 | 63 | 1010.8 |
| 20260505005012 | 71 | 281 | 3.5 | 9.6 | 0.00 | 0.00 | 0.00 | 63 | 1010.9 |
| 20260505004509 | 71 | 254 | 4.3 | 12.2 | 0.00 | 0.00 | 0.00 | 64 | 1010.9 |
| 20260505004010 | 71 | 229 | 5.2 | 12.2 | 0.00 | 0.00 | 0.00 | 64 | 1010.9 |
| 20260505003510 | 71 | 202 | 5.2 | 10.4 | 0.00 | 0.00 | 0.00 | 63 | 1011.0 |
| 20260505003010 | 71 | 222 | 5.2 | 12.2 | 0.00 | 0.00 | 0.00 | 63 | 1011.0 |
| 20260505002510 | 71 | 188 | 5.2 | 12.2 | 0.00 | 0.00 | 0.00 | 62 | 1011.0 |
| 20260505002010 | 71 | 164 | 4.3 | 10.4 | 0.00 | 0.00 | 0.00 | 63 | 1011.0 |
| 20260505001511 | 71 | 255 | 3.5 | 7.8 | 0.00 | 0.00 | 0.00 | 62 | 1011.0 |
| 20260505001010 | 71 | 207 | 1.7 | 7.8 | 0.00 | 0.00 | 0.00 | 62 | 1011.0 |
| 20260505000510 | 71 | 289 | 1.7 | 7.0 | 0.00 | 0.00 | 0.00 | 62 | 1011.1 |
| 20260505000011 | 71 | 260 | 2.6 | 7.0 | 0.00 | 0.00 | 0.00 | 62 | 1011.1 |
| 20260504235509 | 71 | 197 | 5.2 | 13.0 | 0.00 | 0.00 | 0.00 | 63 | 1011.1 |
| 20260504235009 | 71 | 212 | 5.2 | 13.0 | 0.00 | 0.00 | 0.00 | 63 | 1011.1 |
| 20260504234513 | 71 | 226 | 3.5 | 8.7 | 0.00 | 0.00 | 0.00 | 63 | 1011.1 |
| 20260504234508 | 71 | 155 | 3.5 | 10.4 | 0.00 | 0.00 | 0.00 | 61 | 1011.1 |
| 20260504233511 | 71 | 255 | 5.2 | 10.4 | 0.00 | 0.00 | 0.00 | 62 | 1011.2 |
| 20260504233008 | 70 | 226 | 6.1 | 10.4 | 0.00 | 0.00 | 0.00 | 62 | 1011.2 |
| 20260504232513 | 70 | 169 | 3.5 | 9.6 | 0.00 | 0.00 | 0.00 | 62 | 1011.3 |
| 20260504232509 | 70 | 169 | 5.2 | 10.4 | 0.00 | 0.00 | 0.00 | 62 | 1011.2 |
| 20260504232130 | 71 | 207 | 2.6 | 8.7 | 0.00 | 0.00 | 0.00 | 62 | 1011.3 |
| 20260504231009 | 70 | 170 | 3.5 | 11.3 | 0.00 | 0.00 | 0.00 | 63 | 1011.3 |
| 20260504230511 | 70 | 214 | 2.6 | 11.3 | 0.00 | 0.00 | 0.00 | 63 | 1011.4 |
| 20260504230007 | 70 | 257 | 3.5 | 7.8 | 0.00 | 0.00 | 0.00 | 64 | 1011.6 |
| 20260504225506 | 69 | 249 | 4.3 | 7.8 | 0.00 | 0.00 | 0.00 | 63 | 1011.6 |
| 20260504225012 | 69 | 248 | 4.3 | 8.7 | 0.00 | 0.00 | 0.00 | 62 | 1011.7 |
| 20260504225006 | 69 | 164 | 4.3 | 8.7 | 0.00 | 0.00 | 0.00 | 62 | 1011.7 |
| 20260504224006 | 69 | 174 | 3.5 | 8.7 | 0.00 | 0.00 | 0.00 | 62 | 1011.7 |
| 20260504223507 | 69 | 247 | 3.5 | 7.8 | 0.00 | 0.00 | 0.00 | 63 | 1011.8 |
| 20260504223011 | 68 | 284 | 1.7 | 6.1 | 0.00 | 0.00 | 0.00 | 64 | 1011.9 |
| 20260504223006 | 69 | 207 | 1.7 | 7.0 | 0.00 | 0.00 | 0.00 | 62 | 1011.8 |
| 20260504222007 | 68 | 246 | 2.6 | 6.1 | 0.00 | 0.00 | 0.00 | 65 | 1011.9 |
| 20260504221504 | 68 | 162 | 3.5 | 8.7 | 0.00 | 0.00 | 0.00 | 64 | 1012.0 |
| 20260504221005 | 68 | 264 | 3.5 | 10.4 | 0.00 | 0.00 | 0.00 | 64 | 1012.0 |
| 20260504220504 | 67 | 229 | 3.5 | 10.4 | 0.00 | 0.00 | 0.00 | 65 | 1012.0 |
| 20260504220005 | 67 | 196 | 3.5 | 8.7 | 0.00 | 0.00 | 0.00 | 65 | 1012.1 |
| 20260504215508 | 68 | 212 | 3.5 | 8.7 | 0.00 | 0.00 | 0.00 | 64 | 1012.3 |
| 20260504215503 | 67 | 202 | 3.5 | 8.7 | 0.00 | 0.00 | 0.00 | 67 | 1012.3 |
| 20260504215124 | 67 | 244 | 3.5 | 9.6 | 0.00 | 0.00 | 0.00 | 66 | 1012.3 |
| 20260504214004 | 66 | 248 | 3.5 | 9.6 | 0.00 | 0.00 | 0.00 | 67 | 1012.4 |
| 20260504213502 | 66 | 276 | 3.5 | 8.7 | 0.00 | 0.00 | 0.00 | 67 | 1012.4 |
| 20260504213003 | 66 | 226 | 3.5 | 7.8 | 0.00 | 0.00 | 0.00 | 68 | 1012.5 |
| 20260504212500 | 66 | 240 | 3.5 | 8.7 | 0.00 | 0.00 | 0.00 | 68 | 1012.5 |
| 20260504212000 | 66 | 240 | 2.6 | 10.4 | 0.00 | 0.00 | 0.00 | 69 | 1012.6 |
| 20260504211501 | 65 | 236 | 3.5 | 10.4 | 0.00 | 0.00 | 0.00 | 68 | 1012.6 |
| 20260504211001 | 64 | 250 | 3.5 | 7.8 | 0.00 | 0.00 | 0.00 | 68 | 1012.7 |